Tracking 18980 objects as of 23-Feb-2018
HD Live streaming from Space Station
objects crossing your sky now

ARIANE 44L R/B

Track ARIANE 44L R/B now!


NORAD ID: 26696
Int'l Code: 2001-005C
Perigee: 315.6 km
Apogee: 32,082.6 km
Inclination: 7.0 °
Period: 562.4 minutes
Semi major axis: 22570 km
RCS: 23.3181 m2 (large)
Launch date: February 7, 2001
Source: France (FR)
Launch site: FRENCH GUIANA (FRGUI)

Note: This is a ROCKET BODY
aabbcc
Your satellite tracking list
Your tracking list is empty




NASA's NSSDC Master Catalog

Two Line Element Set (TLE):
1 26696U 01005C   18053.09904513 -.00000010 +00000-0 +11744-3 0  9995
2 26696 007.0182 094.8819 7037401 142.3905 297.9225 02.56037251149555
Source of the keplerian elements: AFSPC